Regional Weather Roundup
Issued by NWS

Home | Current Version | Previous Version | Text Only | Print | Product List | Glossary On
Versions: 1 2 3 4 5 6 7 8 9 10 11 12 13 14 15 16 17 18 19 20 21 22 23 24 25 26 27
000
ASUS45 KPSR 260010
RWRAZ

ARIZONA HOURLY REGIONAL WEATHER ROUNDUP
NATIONAL WEATHER SERVICE PHOENIX AZ
500 PM MST SUN FEB 25 2018

NOTE: FAIR INDICATES FEW OR NO CLOUDS BELOW 12,000 FEET WITH NO
SIGNIFICANT WEATHER AND/OR OBSTRUCTIONS TO VISIBILITY.

AZZ001>003-036-260100-
NORTHWEST ARIZONA

CITY           SKY/WX    TMP DP  RH WIND       PRES   REMARKS
BULLHEAD CITY  SUNNY     61   0   8 N14       30.16F
KINGMAN        SUNNY     51   2  13 N6        30.16F
6HR MIN TEMP:  42; 6HR MAX TEMP:  52;

$$

AZZ004>008-015-016-018-260100-
NORTH CENTRAL ARIZONA

CITY           SKY/WX    TMP DP  RH WIND       PRES   REMARKS
GRAND CANYON   SUNNY     38  11  32 CALM      30.14F
6HR MIN TEMP:  30; 6HR MAX TEMP:  39;

WILLIAMS       SUNNY     37  10  32 NW9       30.12S WCI  31
PRESCOTT       SUNNY     47   6  18 NW7       30.13F
6HR MIN TEMP:  37; 6HR MAX TEMP:  49;

FLAGSTAFF      SUNNY     37  11  34 SW9       30.13S WCI  30
6HR MIN TEMP:  29; 6HR MAX TEMP:  40;

PAYSON         SUNNY     48   5  17 W8        30.13S
PAGE           SUNNY     44  10  25 VRB3      30.14F
6HR MIN TEMP:  37; 6HR MAX TEMP:  45;

$$

AZZ009>014-017-260100-
NORTHEAST ARIZONA

CITY           SKY/WX    TMP DP  RH WIND       PRES   REMARKS
WINSLOW        SUNNY     47   4  17 CALM      30.14F
6HR MIN TEMP:  39; 6HR MAX TEMP:  47;

SAINT JOHNS    SUNNY     43   5  20 S6        30.13S
6HR MIN TEMP:  34; 6HR MAX TEMP:  45;

WINDOW ROCK    SUNNY     42   0  17 VRB3      30.12S
6HR MIN TEMP:  32; 6HR MAX TEMP:  42;

SHOW LOW       SUNNY     41   0  17 CALM      30.15S
$$

AZZ540-542>544-546-548-260100-
GREATER PHOENIX AREA

CITY           SKY/WX    TMP DP  RH WIND       PRES   REMARKS
PHOENIX        SUNNY     63  10  12 W6        30.11F
6HR MIN TEMP:  52; 6HR MAX TEMP:  64;

BUCKEYE        SUNNY     63   7  11 W6        30.13F
GLENDALE       SUNNY     63   5  10 CALM      30.13F
LUKE AFB       SUNNY     63   8  11 CALM      30.10F
6HR MIN TEMP:  54; 6HR MAX TEMP:  64;

DEER VALLEY    SUNNY     61   6  11 SW8       30.11S
6HR MIN TEMP:  54; 6HR MAX TEMP:  62;

SCOTTSDALE     SUNNY     62  12  14 CALM      30.12F
6HR MIN TEMP:  54; 6HR MAX TEMP:  63;

MESA-FALCON    SUNNY     63  12  14 SW7       30.12F
MESA-GATEWAY   SUNNY     63   9  12 W5        30.13F
CHANDLER       SUNNY     63   7  11 W6        30.12F
$$

AZZ539-553-260100-
SOUTHWEST MARICOPA COUNTY AND PINAL COUNTY

CITY           SKY/WX    TMP DP  RH WIND       PRES   REMARKS
CASA GRANDE    NOT AVBL
GILA BEND      FAIR      63   1   8 N3        30.12F
6HR MIN TEMP:  54; 6HR MAX TEMP:  63;

$$

AZZ503-504-507>509-260100-
SOUTHEAST ARIZONA

CITY           SKY/WX    TMP DP  RH WIND       PRES   REMARKS
TUCSON         SUNNY     60  12  15 VRB3      30.13S
6HR MIN TEMP:  50; 6HR MAX TEMP:  62;

DAVIS-MONTHAN  SUNNY     61  13  15 NW3       30.11S
6HR MIN TEMP:  50; 6HR MAX TEMP:  63;

RYAN FIELD     SUNNY     59  12  15 NW3       30.14S
NOGALES        SUNNY     61   7  11 NW6       30.10F
6HR MIN TEMP:  51; 6HR MAX TEMP:  62;

SIERRA VISTA   SUNNY     57   6  13 N7        30.13S
6HR MIN TEMP:  48; 6HR MAX TEMP:  59;

DOUGLAS        SUNNY     61   8  12 N7        30.11S
6HR MIN TEMP:  51; 6HR MAX TEMP:  61;

SAFFORD        SUNNY     59   3  10 W8        30.09S
6HR MIN TEMP:  50; 6HR MAX TEMP:  60;

$$

AZZ532-260100-
SOUTHWEST ARIZONA

CITY           SKY/WX    TMP DP  RH WIND       PRES   REMARKS
YUMA           SUNNY     67   8  10 NW9       30.13F
6HR MIN TEMP:  59; 6HR MAX TEMP:  69;

$$

CAZ041-043-047-048-061-525>527-560>570-260100-
SOUTHERN CALIFORNIA

CITY           SKY/WX    TMP DP  RH WIND       PRES   REMARKS
DOWNTOWN L.A.  SUNNY     66  30  26 VRB5      30.11F
6HR MIN TEMP:  59; 6HR MAX TEMP:  68;

L.A. AIRPORT   SUNNY     62  39  42 W17       30.13F
6HR MIN TEMP:  60; 6HR MAX TEMP:  68;

SAN DIEGO      SUNNY     65  43  44 NW9       30.11F
6HR MIN TEMP:  59; 6HR MAX TEMP:  66;

BURBANK        SUNNY     67  23  19 S10       30.09F
6HR MIN TEMP:  56; 6HR MAX TEMP:  68;

ONTARIO        SUNNY     68  17  14 W8        30.09F
6HR MIN TEMP:  56; 6HR MAX TEMP:  69;

RIVERSIDE      SUNNY     68  14  12 VRB5      30.10F
6HR MIN TEMP:  59; 6HR MAX TEMP:  69;

PALM SPRINGS   SUNNY     69  10  10 E7        30.15F
6HR MIN TEMP:  62; 6HR MAX TEMP:  69;

EL CENTRO NAS  SUNNY     67  13  12 N6        30.16F
6HR MIN TEMP:  63; 6HR MAX TEMP:  68;

IMPERIAL       SUNNY     67   8  10 SE5       30.14F
6HR MIN TEMP:  62; 6HR MAX TEMP:  68;

BLYTHE         SUNNY     65   7  10 N8        30.15F
6HR MIN TEMP:  57; 6HR MAX TEMP:  66;

NEEDLES        SUNNY     63  -1   7 NE8       30.16F
6HR MIN TEMP:  58; 6HR MAX TEMP:  64;

$$

NVZ020-UTZ003-260100-
SOUTHERN NEVADA-UTAH

CITY           SKY/WX    TMP DP  RH WIND       PRES   REMARKS
LAS VEGAS      SUNNY     53   7  15 VRB5      30.16F
6HR MIN TEMP:  48; 6HR MAX TEMP:  54;

SALT LAKE CITY PTSUNNY   34  13  41 S16G22    30.14F WCI  24
6HR MIN TEMP:  32; 6HR MAX TEMP:  36; 6HR PCP: TRACE;

$$

NMZ009-TXZ055-260100-
NEW MEXICO-WEST TEXAS

CITY           SKY/WX    TMP DP  RH WIND       PRES   REMARKS
ALBUQUERQUE    SUNNY     43   7  22 N13       30.15R
6HR MIN TEMP:  37; 6HR MAX TEMP:  44;

EL PASO        SUNNY     60   0   9 NW16      30.09R
6HR MIN TEMP:  54; 6HR MAX TEMP:  62;

$$


........................KEY........................
SKY/WX - SKY CONDITION/WEATHER
TMP    - TEMPERATURE IN FAHRENHEIT
DP     - DEW POINT IN FAHRENHEIT
RH     - RELATIVE HUMIDITY IN PERCENT
WIND   - DIRECTION AND SPEED IN MILES PER HOUR (MPH)
VRB    - VARIABLE WIND DIRECTION
PRES   - MEAN SEA LEVEL PRESSURE IN INCHES OF MERCURY
         F - FALLING PRESSURE   R - RISING PRESSURE
         S - STEADY PRESSURE
VSB    - VISIBILITY IN MILES
HX     - HEAT INDEX IN FAHRENHEIT
WCI    - WIND CHILL INDEX IN FAHRENHEIT
TC     - TEMPERATURE IN CELSIUS WHICH IS ALSO KNOWN AS
         TEMPERATURE IN CENTIGRADE
AFB    - AIR FORCE BASE
         LUKE AFB IS LUKE AIR FORCE BASE
         DAVIS-MONTHAN IS DAVIS-MONTHAN AIR FORCE BASE
NAS    - NAVAL AIR STATION
         EL CENTRO NAS IS EL CENTRO NAVAL AIR STATION
N/A    - NOT AVAILABLE





USA.gov is the U.S. government's official web portal to all federal, state and local government web resources and services.